EW5684 Weather Reports


Display with metric or nautical units.
time (UTC)temp
F
wind
direction
speed
MPH
gust
MPH
rain 1hr
in
rain 24hr
in
rain mn
in
humidity
%
barometer
mb
20260502232406 61 0 0.0 0.0 0.00 0.00 0.00 44 1021.3
20260502231906 61 0 0.0 0.0 0.00 0.00 0.00 44 1021.4
20260502231627 61 0 0.0 0.0 0.00 0.00 0.00 44 1021.5
20260502231131 62 0 0.0 0.0 0.00 0.00 0.00 44 1021.4
20260502230406 62 0 0.0 1.0 0.00 0.00 0.00 44 1021.5
20260502225906 62 0 0.0 3.0 0.00 0.00 0.00 44 1021.6
20260502225405 62 0 1.0 3.0 0.00 0.00 0.00 43 1021.5
20260502225125 62 0 2.0 3.0 0.00 0.00 0.00 43 1021.5
20260502224406 62 0 2.0 3.0 0.00 0.00 0.00 42 1021.5
20260502223906 63 0 1.0 3.0 0.00 0.00 0.00 41 1021.5
20260502223406 63 0 2.0 4.0 0.00 0.00 0.00 41 1021.5
20260502222906 63 0 3.0 4.0 0.00 0.00 0.00 40 1021.5
20260502222407 63 0 2.0 5.0 0.00 0.00 0.00 40 1021.5
20260502221905 63 0 3.0 5.0 0.00 0.00 0.00 40 1021.5
20260502221406 63 0 2.0 4.0 0.00 0.00 0.00 39 1021.6
20260502220906 63 0 2.0 6.0 0.00 0.00 0.00 39 1021.5
20260502220406 63 0 4.0 6.0 0.00 0.00 0.00 39 1021.7
20260502215906 63 0 4.0 5.0 0.00 0.00 0.00 39 1021.6
20260502215406 63 0 4.0 5.0 0.00 0.00 0.00 39 1021.6
20260502214905 63 0 3.0 5.0 0.00 0.00 0.00 39 1021.7
20260502214406 63 0 3.0 5.0 0.00 0.00 0.00 39 1021.6
20260502213906 63 0 4.0 5.0 0.00 0.00 0.00 39 1021.7
20260502213406 63 0 4.0 6.0 0.00 0.00 0.00 39 1021.6
20260502212905 63 0 3.0 6.0 0.00 0.00 0.00 39 1021.6
20260502212623 63 0 3.0 5.0 0.00 0.00 0.00 39 1021.6
20260502211906 63 0 2.0 5.0 0.00 0.00 0.00 39 1021.6
20260502211405 63 0 4.0 6.0 0.00 0.00 0.00 40 1021.6
20260502210906 64 0 5.0 6.0 0.00 0.00 0.00 40 1021.7
20260502210405 64 0 3.0 5.0 0.00 0.00 0.00 40 1021.6
20260502210113 64 0 2.0 6.0 0.00 0.00 0.00 40 1021.7
20260502205122 64 0 5.0 6.0 0.00 0.00 0.00 40 1021.7
20260502204406 64 0 3.0 6.0 0.00 0.00 0.00 40 1021.6
20260502204133 64 0 4.0 7.0 0.00 0.00 0.00 41 1021.6
20260502203405 64 0 4.0 7.0 0.00 0.00 0.00 41 1021.7
20260502203125 64 0 4.0 6.0 0.00 0.00 0.00 41 1021.7
20260502202406 65 0 3.0 6.0 0.00 0.00 0.00 40 1021.8
20260502202132 65 0 3.0 5.0 0.00 0.00 0.00 40 1021.8
20260502201625 65 0 4.0 6.0 0.00 0.00 0.00 40 1021.7
20260502200905 65 0 5.0 6.0 0.00 0.00 0.00 40 1021.7
20260502200406 65 0 2.0 4.0 0.00 0.00 0.00 40 1021.7
20260502195906 65 0 2.0 4.0 0.00 0.00 0.00 40 1021.7
20260502195630 65 0 2.0 4.0 0.00 0.00 0.00 40 1021.7
20260502194906 65 0 2.0 5.0 0.00 0.00 0.00 40 1021.7
20260502194406 66 0 3.0 5.0 0.00 0.00 0.00 39 1021.6
20260502193905 66 0 3.0 5.0 0.00 0.00 0.00 38 1021.5
20260502193406 66 0 3.0 4.0 0.00 0.00 0.00 38 1021.5
20260502193125 66 0 2.0 4.0 0.00 0.00 0.00 37 1021.5
20260502192406 66 0 2.0 5.0 0.00 0.00 0.00 37 1021.5
20260502191905 66 0 4.0 5.0 0.00 0.00 0.00 38 1021.5
20260502191406 67 0 4.0 5.0 0.00 0.00 0.00 37 1021.5
20260502190906 67 0 2.0 4.0 0.00 0.00 0.00 37 1021.3
20260502190856 68 0 2.0 3.0 0.00 0.00 0.00 37 1021.2
20260502185906 68 0 0.0 3.0 0.00 0.00 0.00 35 1021.2
20260502185407 68 0 2.0 3.0 0.00 0.00 0.00 35 1021.1
20260502184906 69 0 0.0 0.0 0.00 0.00 0.00 35 1021.2
20260502184406 69 0 0.0 0.0 0.00 0.00 0.00 35 1021.1
20260502183905 70 0 0.0 0.0 0.00 0.00 0.00 34 1021.2
20260502183406 70 0 0.0 0.0 0.00 0.00 0.00 34 1021.1
20260502182906 70 0 0.0 0.0 0.00 0.00 0.00 32 1021.2
20260502182405 71 0 0.0 0.0 0.00 0.00 0.00 32 1021.1
20260502181906 71 0 0.0 0.0 0.00 0.00 0.00 32 1021.0
20260502181406 71 0 0.0 0.0 0.00 0.00 0.00 31 1021.0
20260502180906 72 0 0.0 0.0 0.00 0.00 0.00 32 1020.9
20260502180405 72 0 0.0 0.0 0.00 0.00 0.00 32 1021.0
20260502170406 74 197 0.0 1.0 0.00 0.00 0.00 28 1021.1
20260502170121 74 192 1.0 2.0 0.00 0.00 0.00 26 1021.1
20260502164122 73 192 1.0 2.0 0.00 0.00 0.00 29 1021.3
20260502163635 73 192 1.0 2.0 0.00 0.00 0.00 28 1021.4
20260502162905 73 192 0.0 3.0 0.00 0.00 0.00 28 1021.4
20260502162406 73 192 1.0 3.0 0.00 0.00 0.00 28 1021.4
20260502161905 74 158 1.0 3.0 0.00 0.00 0.00 28 1021.5
20260502161411 74 128 0.0 2.0 0.00 0.00 0.00 27 1021.5
20260502160907 74 128 1.0 3.0 0.00 0.00 0.00 27 1021.5
20260502160407 73 164 1.0 5.0 0.00 0.00 0.00 27 1021.7
20260502151905 74 185 1.0 4.0 0.00 0.00 0.00 25 1022.0
20260502151404 74 276 3.0 4.0 0.00 0.00 0.00 25 1022.0
20260502150905 74 212 3.0 4.0 0.00 0.00 0.00 24 1022.1
20260502150404 74 141 1.0 5.0 0.00 0.00 0.00 24 1022.1
20260502150128 74 116 3.0 5.0 0.00 0.00 0.00 24 1022.2
20260502140125 72 66 3.0 6.0 0.00 0.00 0.00 24 1023.1
20260502130636 72 175 4.0 6.0 0.00 0.00 0.00 28 1023.9
20260502123622 71 197 5.0 9.0 0.00 0.00 0.00 31 1024.2
20260502122905 70 237 2.0 6.0 0.00 0.00 0.00 30 1024.3
20260502122404 71 244 4.0 6.0 0.00 0.00 0.00 31 1024.5
20260502121909 71 165 4.0 6.0 0.00 0.00 0.00 31 1024.5
20260502121851 71 183 2.0 5.0 0.00 0.00 0.00 32 1024.6
20260502120910 71 189 2.0 5.0 0.00 0.00 0.00 30 1024.6
20260502120404 71 357 2.0 5.0 0.00 0.00 0.00 32 1024.6
20260502115905 71 183 0.0 5.0 0.00 0.00 0.00 31 1024.8
20260502115405 71 135 4.0 5.0 0.00 0.00 0.00 29 1024.9
20260502114905 73 0 3.0 5.0 0.00 0.00 0.00 29 1024.9
20260502114405 71 0 3.0 9.0 0.00 0.00 0.00 32 1025.0
20260502114130 71 0 5.0 9.0 0.00 0.00 0.00 30 1025.1
20260502113629 70 0 3.0 6.0 0.00 0.00 0.00 31 1025.2
20260502112904 69 0 1.0 9.0 0.00 0.00 0.00 32 1025.3
20260502112630 70 0 7.0 9.0 0.00 0.00 0.00 32 1025.3
20260502111905 70 0 3.0 6.0 0.00 0.00 0.00 33 1025.3
20260502111404 69 0 3.0 7.0 0.00 0.00 0.00 33 1025.4
20260502110905 69 0 4.0 7.0 0.00 0.00 0.00 34 1025.6
20260502110624 69 0 5.0 7.0 0.00 0.00 0.00 32 1025.6
20260502105904 70 0 1.0 5.0 0.00 0.00 0.00 33 1025.7
20260502105405 69 0 3.0 7.0 0.00 0.00 0.00 32 1025.8
20260502104905 70 0 4.0 7.0 0.00 0.00 0.00 35 1025.9
20260502104404 67 0 2.0 5.0 0.00 0.00 0.00 35 1026.0
20260502103904 68 0 3.0 6.0 0.00 0.00 0.00 35 1026.0
20260502103404 68 0 4.0 7.0 0.00 0.00 0.00 36 1026.1
20260502102905 68 0 4.0 7.0 0.00 0.00 0.00 36 1026.1
20260502102404 69 0 1.0 5.0 0.00 0.00 0.00 34 1026.1
20260502101904 69 0 2.0 6.0 0.00 0.00 0.00 36 1026.3
20260502101404 68 0 4.0 6.0 0.00 0.00 0.00 33 1026.3
20260502100905 69 0 3.0 7.0 0.00 0.00 0.00 33 1026.4
20260502100405 69 0 3.0 7.0 0.00 0.00 0.00 34 1026.5
20260502091411 66 0 3.0 5.0 0.00 0.00 0.00 37 1026.8
20260502090905 66 0 3.0 5.0 0.00 0.00 0.00 37 1026.9
20260502090410 66 0 2.0 5.0 0.00 0.00 0.00 38 1026.9
20260502071406 59 0 1.0 4.0 0.00 0.00 0.00 47 1027.7
20260502071126 58 0 2.0 4.0 0.00 0.00 0.00 47 1027.6
20260502070406 58 0 0.0 4.0 0.00 0.00 0.00 48 1027.7
20260502065906 57 0 1.0 3.0 0.00 0.00 0.00 48 1027.6
20260502065406 57 0 2.0 3.0 0.00 0.00 0.00 49 1027.6
20260502064905 56 0 1.0 3.0 0.00 0.00 0.00 49 1027.7
20260502064405 56 0 1.0 3.0 0.00 0.00 0.00 50 1027.7
20260502064126 55 0 0.0 2.0 0.00 0.00 0.00 51 1027.7
20260502063407 54 0 1.0 2.0 0.00 0.00 0.00 53 1027.7
20260502063124 53 0 2.0 3.0 0.00 0.00 0.00 54 1027.7
20260502062850 52 0 2.0 3.0 0.00 0.00 0.00 55 1027.7
20260502061906 51 0 0.0 0.0 0.00 0.00 0.00 56 1027.7
20260502061628 51 0 0.0 0.0 0.00 0.00 0.00 56 1027.7
20260502060906 50 0 0.0 0.0 0.00 0.00 0.00 57 1027.7
20260502060636 50 0 0.0 0.0 0.00 0.00 0.00 57 1027.7
20260502055906 50 0 0.0 0.0 0.00 0.00 0.00 57 1027.7
20260502055406 49 0 0.0 0.0 0.00 0.00 0.00 57 1027.6
20260502055134 49 0 0.0 0.0 0.00 0.00 0.00 57 1027.6
20260502054411 49 0 0.0 0.0 0.00 0.00 0.00 57 1027.6
20260502053906 48 0 0.0 0.0 0.00 0.00 0.00 57 1027.6
20260502053406 48 0 0.0 0.0 0.00 0.00 0.00 57 1027.6
20260502052906 47 0 0.0 0.0 0.00 0.00 0.00 57 1027.7
20260502052851 47 0 0.0 0.0 0.00 0.00 0.00 57 1027.6
20260502051906 47 0 0.0 0.0 0.00 0.00 0.00 57 1027.5
20260502051405 47 0 0.0 0.0 0.00 0.00 0.00 57 1027.5
20260502051349 47 0 0.0 0.0 0.00 0.00 0.00 57 1027.5
20260502050406 47 0 0.0 0.0 0.00 0.00 0.00 57 1027.6
20260502045905 47 0 0.0 0.0 0.00 0.00 0.00 57 1027.5
20260502045406 47 0 0.0 1.0 0.00 0.00 0.00 57 1027.5
20260502044907 47 0 0.0 1.0 0.00 0.00 0.00 57 1027.5
20260502044406 47 0 0.0 0.0 0.00 0.00 0.00 57 1027.5
20260502043906 47 0 0.0 0.0 0.00 0.00 0.00 57 1027.4
20260502043407 47 0 0.0 0.0 0.00 0.00 0.00 57 1027.3
20260502043129 47 0 0.0 1.0 0.00 0.00 0.00 57 1027.3
20260502042406 48 0 0.0 1.0 0.00 0.00 0.00 56 1027.3
20260502041906 48 0 0.0 0.0 0.00 0.00 0.00 56 1027.3
20260502041406 48 0 0.0 0.0 0.00 0.00 0.00 57 1027.2
20260502040905 49 0 0.0 0.0 0.00 0.00 0.00 56 1027.3
20260502040407 49 0 0.0 0.0 0.00 0.00 0.00 56 1027.2
20260502035907 49 0 0.0 0.0 0.00 0.00 0.00 56 1027.3
20260502035406 49 0 0.0 0.0 0.00 0.00 0.00 56 1027.2
20260502034906 49 0 0.0 2.0 0.00 0.00 0.00 56 1027.2
20260502034627 49 0 1.0 2.0 0.00 0.00 0.00 56 1027.3
20260502033906 49 0 0.0 2.0 0.00 0.00 0.00 56 1027.3
20260502033405 49 0 2.0 2.0 0.00 0.00 0.00 56 1027.3
20260502032906 50 0 0.0 0.0 0.00 0.00 0.00 56 1027.2
20260502032407 50 0 0.0 0.0 0.00 0.00 0.00 56 1027.2
20260502031906 50 0 0.0 0.0 0.00 0.00 0.00 56 1027.2
20260502031854 50 0 0.0 0.0 0.00 0.00 0.00 56 1027.2
20260502030906 50 0 0.0 0.0 0.00 0.00 0.00 56 1027.3
20260502030405 50 0 0.0 0.0 0.00 0.00 0.00 55 1027.3
20260502025906 50 0 0.0 0.0 0.00 0.00 0.00 55 1027.2
20260502025631 50 0 0.0 0.0 0.00 0.00 0.00 55 1027.2
20260502024906 50 0 0.0 1.0 0.00 0.00 0.00 55 1027.2
20260502024406 50 0 0.0 2.0 0.00 0.00 0.00 55 1027.2
20260502023905 50 0 2.0 2.0 0.00 0.00 0.00 54 1027.2
20260502023406 50 0 0.0 2.0 0.00 0.00 0.00 53 1027.2
20260502022906 51 0 0.0 2.0 0.00 0.00 0.00 53 1027.0
20260502022406 51 0 0.0 1.0 0.00 0.00 0.00 53 1027.0
20260502021906 51 0 1.0 2.0 0.00 0.00 0.00 53 1027.2
20260502021406 51 0 2.0 2.0 0.00 0.00 0.00 53 1027.0
20260502020906 51 0 0.0 2.0 0.00 0.00 0.00 53 1026.9
20260502020406 51 0 0.0 2.0 0.00 0.00 0.00 53 1026.9
20260502015906 51 0 1.0 2.0 0.00 0.00 0.00 53 1026.9
20260502015627 51 0 1.0 2.0 0.00 0.00 0.00 53 1026.9
20260502014906 51 0 2.0 3.0 0.00 0.00 0.00 54 1026.9
20260502014405 51 0 2.0 3.0 0.00 0.00 0.00 54 1026.8
20260502014133 50 0 2.0 3.0 0.00 0.00 0.00 54 1026.8
20260502013406 50 0 2.0 3.0 0.00 0.00 0.00 54 1026.8
20260502012905 50 0 0.0 0.0 0.00 0.00 0.00 55 1026.8
20260502012406 50 0 0.0 1.0 0.00 0.00 0.00 55 1026.8
20260502011906 50 0 0.0 1.0 0.00 0.00 0.00 55 1026.9
20260502011406 50 0 0.0 0.0 0.00 0.00 0.00 55 1026.9
20260502010906 50 0 0.0 0.0 0.00 0.00 0.00 55 1026.9
20260502010406 50 0 0.0 0.0 0.00 0.00 0.00 55 1027.0
20260502005906 50 0 0.0 0.0 0.00 0.00 0.00 55 1027.0
20260502005406 50 0 0.0 0.0 0.00 0.00 0.00 55 1027.0
20260502004906 50 0 0.0 0.0 0.00 0.00 0.00 56 1026.9
20260502004406 51 0 0.0 0.0 0.00 0.00 0.00 56 1027.0
20260502003906 51 0 0.0 0.0 0.00 0.00 0.00 56 1027.0
20260502003625 51 0 0.0 1.0 0.00 0.00 0.00 56 1027.0
20260502002905 51 0 0.0 2.0 0.00 0.00 0.00 55 1027.2
20260502002404 51 0 1.0 2.0 0.00 0.00 0.00 55 1027.0
20260502001905 52 0 0.0 1.0 0.00 0.00 0.00 56 1027.0
20260502001409 52 0 0.0 0.0 0.00 0.00 0.00 55 1027.0
20260502000904 52 0 0.0 1.0 0.00 0.00 0.00 55 1027.0
20260502000404 52 0 0.0 3.0 0.00 0.00 0.00 55 1027.3
20260501235904 52 0 2.0 3.0 0.00 0.00 0.00 55 1027.2
20260501235404 53 0 2.0 2.0 0.00 0.00 0.00 55 1027.2
20260501234904 53 0 0.0 1.0 0.00 0.00 0.00 54 1027.2
20260501234405 53 0 0.0 1.0 0.00 0.00 0.00 54 1027.2
20260501233905 54 0 0.0 1.0 0.00 0.00 0.00 54 1027.0
20260501233404 54 0 1.0 2.0 0.00 0.00 0.00 54 1027.2